19:26
Airports
History
Links
Donate
Help keep this website running!
PayPal
Bitcoin
This page is community maintained. The information is intended for PC simulator navigation or reference.
Always use approved charts for navigation.
SBBQ
MAJOR BRIGADEIRO DOORGAL BORGES
MAJOR BRIGADEIRO DOORGAL BORGES (SBBQ)
Barbacena, Minas Gerais, Brazil (36200)
(C)
Lat/Lng:21° 16' 1.8" S / 43° 45' 39.75" W
-21.267167 / -43.761042
Elevation:3657'ft / 1115mMSL
ID / ICAO:SBBQ
Runways:1
Longest:18-36
Asphalt 1,770m / 5,808ft
Controlled:Yes
METAR19:00 GMT 2017-11-18
Altimeter: 29.94
Visibility: 6.2 statute miles
Wind: 2 knots (from 350°)
Temp: 25°c / 77°f
Humidity: 61.2%

METAR: SBBQ 181900Z 35002KT 9999 VCTS FEW035CB BKN100 25/17 Q1014 RETS

(Powered by phpweather)
Airport Radio Frequencies
Tower: 125.9
Runway 18 / 36
Dimensions:1770.3 x 29.9m 5808' x 98'ft
Surface:Asphalt
Edge Lights:Low intensity
Runway 18 [A]Runway 36 [B]
Heading:162°TH 342°TH
Lat:
Lng:
21° 15' 34.5"S
43° 45' 49.1"W
21° 16' 29.1"S
43° 45' 30.4"W
User Notes and Comments
21° 16' 1.8" S / 43° 45' 39.75" W
Distance To
Airport ID:
Nearby Airports
(U) SAO JOAO DEL REI 32.5 NM
SNJR WNW 292°
4 Carolina de Assis Repetto 33.3 NM
SJXM SSW 194°
(U) Conselheiro Lafaiete 36.6 NM
SNKF N 356°
(U) Regional da Zona da Mata 41.5 NM
SDZY ESE 114°
(U) Regional da Zona da Mata 41.5 NM
SBZM ESE 114°
4 Fazenda Recreio 42.5 NM
SJJR SW 222°
(C) FRANCISCO DE ASSIS 43.5 NM
SBJF ( WX ) SE 146°
VFR Chart
Flight Planning at SkyVector.com